Temperature
15 15 15 15 15 15 15 15 15 15 15 15 15 15 15 15 15 15 15 15 15 15 15 15 15 15 15 15 15 15 15 15 15 15 15 15 15 15 15 15 14 14 15
15 15 15 15 15 15 15 15 15 15 15 15 15 15 15 15 15 15 15 15 15 14 14 15 14 14 14 14 14 14 14 15 15 15 15 14 14 14 14 14 14 14 14
15 14 15 15 15 15 15 15 15 15 15 14 14 15 15 15 15 15 15 14 14 14 14 14 14 14 14 14 14 14 14 14 15 14 14 14 14 14 14 14 14 14 14
14 14 14 14 14 14 14 14 14 14 14 14 14 14 15 15 14 14 14 14 14 14 14 14 14 14 14 14 14 14 14 14 14 14 13 13 14 14 14 14 14 14 14
14 14 14 14 14 14 14 14 14 14 14 14 14 14 14 14 14 14 14 14 14 14 14 14 14 14 13 13 14 14 14 14 14 14 13 13 13 14 14 14 14 14 14
13 13 13 14 14 14 14 14 14 14 14 14 14 14 14 14 14 14 14 14 14 14 14 14 14 14 14 14 14 14 14 14 14 13 13 13 13 14 14 14 14 14 14
13 13 13 13 13 13 14 14 14 14 14 14 14 14 14 14 14 14 14 13 13 13 13 13 13 13 13 13 14 14 14 14 13 13 13 13 13 13 13 13 13 13 13
13 13 13 13 13 13 13 13 13 13 14 14 14 14 13 13 13 13 13 13 13 13 13 13 13 13 13 13 13 13 13 13 13 13 13 12 13 13 13 13 13 13 13
12 12 12 13 13 13 13 13 13 13 13 13 13 13 13 13 13 13 13 13 13 13 13 13 13 13 13 13 13 13 13 13 12 12 12 12 12 12 12 12 13 13 13
12 12 12 12 12 12 13 13 13 13 13 13 13 13 13 13 13 13 13 13 12 12 12 12 12 12 13 13 13 13 13 12 12 12 12 12 12 12 12 12 12 12 13
12 12 12 12 12 12 12 12 12 12 12 12 12 12 12 12 12 12 12 12 12 12 12 12 12 12 12 12 12 12 12 12 12 11 12 12 12 12 12 12 12 12 12
12 12 12 12 12 12 12 12 12 12 12 12 12 12 12 12 12 12 12 12 12 12 12 12 12 12 12 12 12 12 12 12 11 11 11 12 12 11 11 11 11 11 11
11 11 11 11 11 11 12 11 11 11 11 11 11 11 11 11 11 11 11 11 11 11 11 11 11 11 11 12 12 11 11 11 11 11 11 11 11 11 11 11 11 11 11
11 11 11 11 11 11 11 11 11 11 11 11 11 11 11 11 11 11 11 11 11 11 11 11 11 11 11 11 11 11 11 11 11 11 11 11 11 11 11 11 11 11 11
10 10 10 10 10 10 11 11 11 11 10 10 10 10 11 11 11 11 10 10 11 11 11 11 11 11 11 11 11 10 10 10 10 11 11 11 11 10 10 10 10 10 10
10 10 10 10 10 10 10 10 10 10 10 10 10 10 10 10 10 10 10 10 10 10 10 10 10 10 10 10 10 10 10 10 10 10 10 10 10 10 10 10 10 10 10
10 9 10 10 10 10 10 10 10 10 10 10 10 9 9 9 9 10 10 10 10 10 10 10 10 9 10 10 10 9 9 9 9 9 9 9 9 9 10 9 9 9 9
9 9 9 9 9 9 9 9 9 9 9 9 9 9 9 9 9 9 9 9 9 9 9 9 9 9 9 9 9 9 9 9 9 9 9 9 9 9 9 9 9 9 9
9 9 9 9 9 9 9 9 9 9 9 9 9 9 9 8 8 8 8 8 8 8 8 8 8 8 8 8 8 8 8 8 8 8 8 8 8 8 8 8 8 8 8
8 8 8 9 9 8 8 8 8 8 8 8 8 8 8 8 8 8 8 8 8 8 8 8 8 8 8 8 8 8 8 8 8 8 8 8 8 8 8 8 8 8 8
8 8 8 8 8 8 8 8 8 8 8 8 8 8 8 8 8 8 7 7 7 7 7 7 7 7 7 7 7 7 7 7 7 7 7 7 7 7 7 7 7 7 7
7 8 8 8 8 7 7 7 7 7 7 7 7 7 7 7 7 7 7 7 7 7 7 7 7 7 7 7 6 6 6 6 7 7 7 7 7 6 6 6 6 6 6
7 7 7 7 7 7 7 7 7 7 6 6 6 7 7 6 6 6 6 6 6 6 6 6 6 6 6 6 6 6 6 6 5 6 6 6 6 6 6 6 6 6 6
7 7 7 7 7 7 6 6 6 6 6 6 6 6 6 6 6 6 6 6 6 6 6 6 6 6 6 5 5 5 5 5 5 5 5 5 5 5 5 5 5 5 5
6 6 6 6 6 6 6 6 6 6 6 5 5 5 5 6 6 6 6 5 5 5 5 5 5 5 5 5 5 5 4 4 4 4 4 4 4 4 4 4 5 5 5
6 6 6 6 6 6 6 6 5 5 5 5 5 5 5 5 5 5 5 5 5 5 5 5 5 5 4 4 4 4 4 4 4 4 3 3 3 4 4 4 4 4 4
Wind_Speed
3 3 5 6 7 8 8 9 9 9 9 9 9 9 9 10 10 10 10 10 10 10 10 10 10 11 12 12 12 12 12 12 12 12 12 12 13 13 12 10 10 11 12
4 5 6 7 7 8 8 8 9 9 9 9 8 8 9 9 10 11 10 10 10 10 10 10 11 11 11 12 11 11 11 12 12 11 11 11 12 12 11 10 10 10 11
4 6 7 7 7 8 8 9 9 9 9 8 7 7 8 8 9 10 10 9 9 9 9 10 10 11 11 11 11 11 11 10 10 9 6 8 10 10 11 10 10 10 10
5 6 6 7 7 8 8 8 8 8 8 8 8 7 7 7 8 9 9 9 9 9 9 10 10 11 11 10 10 10 9 9 8 5 5 7 8 9 9 9 9 9 9
5 5 6 7 7 8 8 8 8 8 8 7 7 7 7 7 7 8 8 9 9 9 9 9 10 10 10 10 10 9 9 8 6 4 6 6 7 8 7 8 8 7 7
4 4 6 6 7 7 7 7 7 8 8 7 7 7 7 7 7 7 8 8 8 8 8 9 8 9 9 9 9 8 8 7 4 5 5 5 6 7 6 6 7 6 6
4 4 5 5 6 7 7 7 7 7 7 7 6 6 6 6 6 6 7 8 8 8 8 8 8 8 8 8 8 8 7 5 4 4 4 5 6 6 5 6 5 5 4
3 4 4 4 5 6 6 6 6 6 7 7 6 6 6 6 6 6 6 7 7 7 7 7 7 7 8 8 7 7 6 4 4 4 4 5 6 5 5 4 4 4 3
4 3 3 3 4 6 6 6 6 6 6 6 6 6 6 5 5 5 6 6 7 6 6 7 7 6 7 7 7 6 6 4 3 4 4 4 5 5 4 4 3 3 3
3 2 2 2 3 4 5 5 6 6 6 6 6 6 6 5 5 6 6 6 6 6 6 6 6 6 6 6 6 6 5 2 3 3 3 4 4 4 3 3 3 3 2
2 2 1 2 2 3 3 4 5 5 6 6 6 7 5 4 4 4 5 5 5 5 5 5 6 6 6 5 5 5 3 1 2 2 2 4 3 2 3 2 3 3 2
3 1 1 1 1 2 3 3 3 4 4 4 3 4 3 3 3 4 6 6 6 5 5 5 5 5 3 3 3 3 2 1 1 1 2 4 2 2 2 2 2 2 2
3 2 1 0 1 1 2 2 2 3 3 3 3 3 2 3 3 3 3 3 4 3 2 3 3 2 2 2 1 1 1 1 1 1 2 3 2 2 2 2 2 2 2
3 2 1 1 1 1 1 2 2 3 2 2 2 2 2 1 1 1 1 1 1 1 1 1 1 2 2 1 1 1 1 0 1 1 2 3 2 2 2 2 2 2 3
4 3 2 2 2 2 2 1 1 2 2 2 2 2 1 1 1 1 1 1 1 1 1 1 1 1 1 1 1 1 1 1 0 0 1 2 2 2 3 3 3 4 4
3 3 2 2 2 2 2 2 2 1 2 2 2 2 2 1 1 1 1 1 1 1 1 0 0 1 1 1 1 1 1 1 1 1 1 1 1 2 3 3 4 5 5
4 4 3 3 3 3 3 2 2 2 2 2 2 3 3 2 2 1 1 1 1 1 1 1 1 1 1 1 2 2 1 1 1 1 1 1 1 0 2 3 4 4 5
4 4 3 3 3 3 2 3 2 2 3 2 3 3 3 3 2 2 1 1 1 2 2 1 1 1 2 2 2 2 2 2 2 2 2 2 2 2 1 2 3 4 5
4 4 4 3 3 3 3 3 2 2 2 2 3 3 3 3 3 2 2 1 2 2 2 2 2 2 2 2 2 2 2 3 2 3 3 3 2 2 3 2 3 4 5
4 4 4 4 3 3 3 3 2 2 2 2 2 2 3 3 4 3 2 3 2 2 2 2 2 2 2 2 2 2 3 3 3 3 4 3 3 3 3 4 4 3 4
3 4 4 4 3 3 3 3 3 3 2 2 2 3 3 3 4 4 3 3 3 3 3 3 2 2 2 1 2 2 3 3 3 3 3 3 3 3 3 4 4 4 4
4 4 4 4 4 4 4 4 3 3 2 2 2 3 3 4 4 4 4 3 4 3 3 3 3 2 1 2 2 2 3 3 3 3 3 3 3 3 4 4 5 5 5
4 4 4 4 4 5 4 3 3 2 2 2 2 2 3 4 4 4 4 4 3 4 3 4 4 4 3 2 2 3 3 3 2 3 3 3 3 3 4 4 5 5 5
4 4 4 3 4 4 4 5 5 4 4 3 3 2 2 2 3 3 3 3 3 3 3 3 3 3 3 3 2 2 3 3 3 3 3 3 4 4 4 4 4 5 5
3 2 2 2 3 3 4 5 5 4 3 2 3 3 2 1 2 2 3 3 3 3 3 3 3 3 3 3 3 2 3 3 4 4 5 4 4 4 4 5 4 4 5
1 1 1 2 3 3 4 4 5 5 4 4 3 3 2 1 1 2 2 2 2 2 3 3 3 3 3 3 3 3 3 3 3 4 5 5 6 5 5 4 4 4 5
Wind_Direction
150 142 131 129 119 115 114 112 112 112 114 113 113 115 114 112 110 110 109 106 103 100 98 96 95 95 95 95 94 90 86 84 84 84 85 87 88 86 83 79 81 81 79
149 150 134 133 124 119 118 117 113 113 112 114 115 115 116 113 113 108 105 105 104 101 99 98 95 95 93 93 93 91 88 84 82 82 89 92 89 87 83 75 70 79 80
139 143 140 134 130 124 119 117 115 112 111 114 117 116 117 116 114 111 107 103 102 102 100 98 97 96 94 93 91 91 89 85 84 83 94 95 91 87 84 79 79 79 79
138 142 140 134 134 130 125 122 119 117 114 114 118 118 120 119 115 115 111 106 101 97 99 100 99 97 93 92 89 89 89 87 85 91 89 85 90 88 86 83 81 78 75
134 140 129 132 135 132 127 123 122 123 123 117 116 119 124 126 122 121 117 113 106 100 99 101 101 100 96 92 88 86 85 86 86 91 83 83 85 85 84 83 81 78 74
138 139 127 128 136 133 130 129 127 124 123 122 116 115 121 126 127 124 121 117 112 108 105 101 102 104 100 97 92 88 85 82 102 89 83 81 84 84 82 82 81 76 72
140 132 129 129 131 132 129 128 127 126 122 118 115 112 114 114 114 121 122 121 120 116 110 105 104 110 106 101 96 92 88 77 85 86 82 77 75 77 84 81 73 71 71
133 127 122 125 133 129 129 129 126 123 121 118 114 108 110 113 111 114 119 122 123 120 116 110 105 108 113 108 101 96 89 85 91 85 80 76 65 67 78 74 69 67 63
113 112 111 127 135 131 131 133 131 124 119 116 116 112 110 112 112 108 112 121 119 119 119 115 110 107 113 112 107 101 90 73 91 87 80 73 66 62 64 59 59 57 50
110 105 102 113 128 141 138 127 125 120 116 111 109 106 107 103 107 110 109 112 116 119 122 118 115 114 109 112 113 107 103 111 94 95 85 73 65 57 51 51 47 42 33
129 117 95 104 108 119 132 124 124 115 105 105 100 93 99 107 105 108 101 102 110 116 119 117 114 115 114 111 119 121 132 123 104 87 74 63 58 44 31 31 34 26 13
168 160 123 106 109 116 120 130 132 134 122 112 106 103 100 95 88 90 92 94 99 103 108 111 117 127 132 118 119 146 142 142 120 102 72 60 37 22 18 13 10 2 355
180 171 181 223 109 117 118 130 127 130 123 120 108 108 107 101 98 96 108 104 100 106 113 119 139 137 114 92 103 111 124 140 117 103 70 60 25 7 356 348 341 334 334
184 187 199 210 186 155 133 134 142 138 130 123 115 119 119 105 109 113 110 109 113 103 97 117 128 125 120 124 125 124 141 169 101 90 62 55 21 355 341 339 337 330 322
197 195 206 210 196 175 154 147 134 140 144 142 137 143 131 134 156 155 134 122 114 102 111 104 135 139 139 138 152 184 181 218 209 188 96 64 14 349 338 334 327 321 314
207 199 190 201 196 176 163 167 159 158 160 161 155 159 160 164 174 168 146 136 127 126 104 108 189 235 220 203 203 203 218 227 234 232 248 136 65 357 333 318 312 309 310
207 198 186 191 189 181 177 183 177 173 177 177 171 167 167 174 189 177 174 172 160 163 159 171 184 253 247 225 214 213 219 232 246 245 247 261 256 9 340 319 309 307 307
202 195 186 186 185 185 181 190 188 181 184 187 187 176 175 176 185 191 188 191 188 184 181 194 214 224 240 238 231 222 223 225 236 247 245 251 270 279 292 321 305 303 306
201 191 182 185 186 189 188 186 182 178 186 193 193 184 183 184 186 193 200 198 205 193 195 209 223 238 246 248 242 240 237 235 237 242 243 246 258 270 277 284 280 294 302
206 197 190 191 189 187 186 188 179 172 182 195 200 195 191 193 195 200 200 196 201 203 207 213 220 240 243 258 251 246 246 244 244 243 247 247 251 259 268 276 268 272 282
204 203 201 194 189 188 194 199 198 202 203 203 209 210 204 204 197 198 197 194 200 207 214 215 218 225 236 248 250 252 245 242 243 243 246 247 250 260 268 273 273 278 272
210 210 212 206 200 203 207 207 212 209 214 212 209 220 215 213 205 198 197 197 201 208 211 211 210 220 235 236 252 256 247 229 226 235 241 247 257 267 268 272 277 276 280
221 219 218 213 210 209 203 189 176 184 198 208 220 225 224 219 210 207 201 199 202 205 209 214 216 219 228 236 249 255 256 249 252 223 237 243 257 267 273 278 276 275 277
229 223 224 218 216 211 199 193 187 196 209 220 215 212 216 216 205 199 199 195 201 210 211 215 220 226 225 227 237 250 271 289 266 255 230 242 261 269 274 279 275 275 274
232 220 224 220 218 208 202 201 201 208 212 205 196 193 198 199 200 194 193 190 201 206 213 213 215 223 230 237 240 241 249 262 262 264 264 262 264 265 276 278 274 277 278
221 208 217 219 222 212 200 203 209 208 204 198 198 198 203 200 201 198 196 189 200 205 212 218 217 220 225 237 244 243 245 249 252 256 267 275 273 272 276 270 269 271 278
Height
1523 1523 1524 1526 1527 1527 1528 1529 1530 1530 1531 1532 1532 1532 1533 1533 1533 1534 1534 1534 1534 1535 1535 1535 1535 1535 1534 1534 1534 1534 1534 1534 1534 1535 1535 1535 1535 1535 1535 1536 1536 1536 1536
1522 1523 1524 1525 1527 1527 1528 1529 1530 1530 1531 1532 1532 1533 1533 1533 1534 1534 1534 1535 1535 1535 1535 1535 1535 1535 1535 1535 1535 1535 1535 1535 1535 1536 1536 1536 1536 1536 1536 1537 1537 1537 1537
1522 1523 1524 1525 1527 1527 1528 1529 1529 1530 1531 1532 1532 1533 1533 1534 1534 1534 1535 1535 1535 1535 1535 1536 1535 1536 1536 1536 1536 1536 1536 1536 1536 1537 1537 1538 1537 1537 1537 1537 1537 1537 1538
1522 1523 1524 1525 1526 1527 1528 1529 1529 1530 1531 1531 1532 1533 1533 1534 1534 1534 1535 1535 1535 1535 1536 1536 1536 1536 1536 1536 1536 1536 1536 1537 1537 1538 1538 1538 1538 1538 1538 1538 1538 1538 1538
1522 1523 1524 1525 1526 1527 1527 1528 1529 1530 1530 1531 1532 1533 1533 1534 1534 1534 1534 1535 1535 1535 1535 1536 1536 1536 1536 1536 1536 1536 1537 1537 1538 1538 1539 1539 1538 1538 1538 1538 1538 1538 1538
1522 1523 1524 1525 1525 1526 1527 1528 1528 1529 1530 1531 1532 1532 1533 1533 1534 1534 1534 1534 1535 1535 1535 1535 1535 1536 1536 1536 1536 1536 1537 1537 1538 1538 1539 1539 1538 1538 1538 1538 1538 1538 1538
1522 1523 1523 1524 1525 1526 1527 1527 1528 1529 1529 1530 1531 1532 1532 1533 1533 1534 1534 1534 1534 1535 1535 1535 1535 1535 1536 1536 1536 1536 1536 1537 1538 1538 1538 1538 1538 1538 1538 1538 1538 1538 1538
1522 1522 1523 1524 1525 1525 1526 1527 1527 1528 1529 1530 1530 1531 1532 1532 1533 1533 1533 1533 1533 1534 1534 1535 1535 1535 1535 1535 1535 1536 1536 1536 1537 1537 1538 1538 1537 1537 1537 1537 1537 1537 1537
1521 1522 1523 1523 1524 1525 1525 1526 1527 1527 1528 1529 1529 1530 1531 1531 1532 1532 1533 1533 1533 1533 1533 1534 1534 1534 1534 1535 1534 1535 1535 1536 1536 1537 1537 1537 1537 1537 1537 1537 1537 1536 1536
1521 1521 1522 1523 1523 1523 1524 1525 1526 1527 1527 1528 1528 1529 1530 1530 1531 1531 1532 1532 1532 1532 1533 1533 1533 1534 1534 1534 1534 1534 1535 1535 1536 1536 1536 1536 1536 1536 1536 1536 1536 1536 1535
1519 1520 1521 1521 1522 1522 1523 1523 1524 1525 1526 1527 1527 1528 1529 1529 1530 1530 1530 1531 1531 1532 1532 1532 1532 1533 1533 1533 1533 1533 1534 1534 1535 1535 1535 1535 1535 1535 1535 1535 1535 1535 1534
1518 1518 1519 1519 1520 1521 1521 1522 1522 1523 1524 1525 1526 1526 1527 1527 1528 1529 1529 1529 1530 1530 1531 1531 1531 1532 1532 1532 1532 1532 1533 1533 1534 1534 1534 1534 1534 1534 1534 1534 1534 1533 1533
1516 1517 1517 1518 1518 1518 1519 1520 1520 1521 1522 1523 1524 1524 1525 1526 1526 1527 1527 1528 1528 1529 1529 1530 1530 1530 1530 1530 1530 1531 1531 1532 1532 1532 1532 1532 1532 1532 1532 1532 1532 1532 1531
1515 1515 1515 1516 1516 1517 1517 1517 1518 1519 1520 1521 1522 1523 1523 1523 1524 1525 1525 1526 1526 1527 1528 1528 1528 1528 1529 1529 1529 1530 1530 1530 1530 1530 1530 1530 1530 1531 1530 1530 1530 1530 1529
1513 1513 1513 1513 1514 1514 1514 1515 1516 1517 1518 1519 1520 1520 1521 1521 1522 1522 1523 1523 1524 1525 1526 1526 1527 1527 1527 1527 1527 1528 1528 1528 1528 1529 1528 1528 1528 1528 1528 1528 1528 1527 1527
1510 1510 1511 1511 1512 1512 1512 1513 1514 1514 1516 1517 1517 1518 1518 1519 1519 1520 1520 1521 1522 1522 1523 1523 1524 1525 1525 1525 1525 1525 1526 1526 1526 1526 1526 1526 1526 1526 1525 1525 1525 1525 1524
1508 1508 1508 1509 1509 1510 1510 1511 1511 1512 1513 1514 1515 1515 1516 1516 1517 1517 1518 1518 1519 1520 1520 1521 1522 1522 1522 1523 1523 1523 1523 1523 1523 1524 1524 1523 1523 1523 1522 1522 1522 1522 1521
1505 1505 1505 1506 1506 1507 1508 1509 1509 1510 1510 1511 1512 1512 1513 1514 1514 1515 1515 1516 1517 1517 1518 1518 1519 1519 1520 1520 1520 1520 1520 1521 1521 1521 1521 1520 1520 1520 1519 1519 1519 1518 1518
1502 1502 1502 1503 1503 1504 1505 1506 1506 1507 1507 1508 1509 1509 1510 1511 1512 1512 1513 1513 1514 1515 1515 1516 1516 1517 1517 1517 1517 1517 1517 1517 1518 1517 1517 1517 1517 1516 1516 1516 1515 1515 1515
1498 1499 1499 1500 1500 1501 1502 1503 1503 1504 1505 1505 1506 1507 1507 1508 1509 1509 1510 1510 1511 1511 1512 1513 1513 1514 1514 1515 1514 1514 1514 1514 1514 1514 1514 1514 1514 1513 1513 1512 1512 1511 1511
1495 1495 1496 1496 1497 1498 1498 1499 1500 1500 1501 1502 1503 1503 1504 1505 1505 1506 1507 1507 1508 1508 1509 1510 1510 1511 1511 1512 1512 1512 1511 1511 1511 1511 1511 1511 1510 1510 1509 1509 1508 1508 1507
1492 1492 1493 1493 1494 1495 1495 1496 1497 1497 1498 1498 1500 1500 1501 1501 1502 1503 1503 1504 1505 1506 1506 1507 1507 1508 1508 1508 1509 1509 1510 1510 1507 1507 1507 1507 1507 1506 1506 1505 1505 1504 1503
1489 1489 1489 1490 1491 1491 1492 1493 1494 1494 1495 1496 1496 1497 1497 1498 1499 1499 1500 1500 1501 1502 1503 1503 1504 1504 1505 1505 1506 1507 1507 1506 1505 1504 1504 1504 1503 1503 1502 1502 1501 1500 1499
1486 1486 1486 1487 1488 1488 1489 1489 1490 1490 1491 1492 1493 1493 1494 1494 1495 1495 1496 1497 1498 1499 1499 1500 1501 1501 1502 1502 1502 1502 1503 1503 1504 1502 1501 1501 1500 1500 1499 1498 1497 1496 1495
1483 1483 1483 1484 1485 1485 1486 1486 1487 1488 1488 1489 1489 1490 1491 1491 1492 1492 1493 1493 1494 1495 1496 1496 1497 1498 1498 1498 1499 1499 1499 1500 1500 1500 1498 1498 1497 1496 1495 1494 1493 1493 1491
1480 1481 1481 1482 1482 1482 1483 1483 1484 1484 1485 1485 1486 1486 1487 1488 1488 1488 1489 1490 1491 1491 1492 1493 1493 1494 1494 1495 1495 1495 1496 1496 1496 1496 1495 1494 1493 1492 1491 1490 1489 1488 1487